Cut Bank, MT

12:26 PM MDT on April 25, 2018 (GMT -0600)
Cut Bank Municipal

Weather History for KCTB - July, 2014

Change the Weather History Date:

Wednesday, July 9, 2014

  Actual Average Record
Temperature  
Mean Temperature 70 °F 63 °F  
Max Temperature 87 °F 78 °F 96 °F (1985)
Min Temperature 53 °F 49 °F 37 °F (1981)
Degree Days  
Heating Degree Days 0 3  
Month to date heating degree days 4 37  
Since 1 June heating degree days 277 270  
Since 1 July heating degree days 4 37  
Cooling Degree Days 5 2  
Month to date cooling degree days 32 13  
Year to date cooling degree days 33 30  
Since 1 June cooling degree days 33 28  
Growing Degree Days 20 (Base 50)    
Moisture  
Dew Point 49 °F    
Average Humidity 50    
Maximum Humidity 77    
Minimum Humidity 22    
Precipitation  
Precipitation 0.00 in 0.04 in 1.03 in (1946)
Month to date precipitation 0.04 0.46  
Year to date precipitation 10.77 6.65  
Snow  
Snow 0.00 in - - ()
Snow Depth 0.00 in    
Sea Level Pressure  
Sea Level Pressure 29.82 in    
Wind  
Wind Speed 10 mph (SW)    
Max Wind Speed 20 mph    
Max Gust Speed 25 mph    
Visibility 10 miles    
Events      
T = Trace of Precipitation, MM = Missing Value Source: NWS Daily Summary

Daily Weather History Graph

Daily Weather History Graph

Search for Another Location

Airport or City:

Astronomy

Jul. 09, 2014 Rise Set
Actual Time 5:37 AM MDT 9:31 PM MDT
Civil Twilight 4:56 AM MDT 10:12 PM MDT
Nautical Twilight 3:59 AM MDT 11:08 PM MDT
Astronomical Twilight 2:29 AM MDT 12:37 AM MDT
Moon 6:41 PM MDT (7/9) 3:06 AM MDT (7/9)
Length of Visible Light 17h 16m
Length of Day
15h 54m
Waxing Gibbous, 90% of the Moon is Illuminated
Jul 9
Waxing Gibbous
Jul 12
Full
Jul 18
Last Quarter
Jul 26
New
Aug 3
First Quarter

Hourly Weather History & Observations

Time (MDT) Temp. Heat Index Dew Point Humidity Pressure Visibility Wind Dir Wind Speed Gust Speed Precip Events Conditions
12:56 AM 61.0 °F - 46.0 °F 58% 29.95 in 10.0 mi South 9.2 mph - N/A   Clear
1:56 AM 61.0 °F - 46.0 °F 58% 29.94 in 10.0 mi ESE 5.8 mph - N/A   Clear
2:56 AM 57.9 °F - 46.0 °F 65% 29.93 in 10.0 mi East 5.8 mph - N/A   Clear
3:56 AM 59.0 °F - 46.0 °F 62% 29.91 in 10.0 mi ESE 9.2 mph - N/A   Clear
4:56 AM 55.0 °F - 45.0 °F 69% 29.91 in 10.0 mi SW 4.6 mph - N/A   Clear
5:56 AM 54.0 °F - 46.0 °F 75% 29.91 in 10.0 mi Calm Calm - N/A   Clear
6:56 AM 57.0 °F - 48.9 °F 74% 29.90 in 10.0 mi Calm Calm - N/A   Clear
7:56 AM 62.1 °F - 50.0 °F 65% 29.90 in 10.0 mi South 3.5 mph - N/A   Clear
8:56 AM 66.0 °F - 50.0 °F 56% 29.89 in 10.0 mi ESE 5.8 mph - N/A   Partly Cloudy
9:56 AM 71.1 °F - 50.0 °F 47% 29.88 in 10.0 mi SSE 6.9 mph - N/A   Clear
10:56 AM 77.0 °F - 53.1 °F 43% 29.85 in 10.0 mi SE 6.9 mph - N/A   Clear
11:56 AM 81.0 °F 80.4 °F 53.1 °F 38% 29.83 in 10.0 mi South 8.1 mph - N/A   Clear
12:56 PM 84.9 °F - 51.1 °F 31% 29.81 in 10.0 mi WSW 10.4 mph - N/A   Partly Cloudy
1:56 PM 87.1 °F - 48.0 °F 26% 29.78 in 10.0 mi West 15.0 mph 18.4 mph N/A   Partly Cloudy
2:56 PM 82.9 °F - 48.0 °F 29% 29.78 in 10.0 mi West 16.1 mph - N/A   Clear
3:56 PM 86.0 °F - 46.9 °F 26% 29.76 in 10.0 mi West 19.6 mph 25.3 mph N/A   Clear
4:56 PM 87.1 °F - 45.0 °F 23% 29.75 in 10.0 mi WNW 18.4 mph - N/A   Clear
5:56 PM 81.0 °F - 48.9 °F 33% 29.75 in 10.0 mi West 13.8 mph - N/A   Clear
6:56 PM 81.0 °F - 51.1 °F 35% 29.73 in 10.0 mi West 10.4 mph - N/A   Clear
7:56 PM 78.1 °F - 51.1 °F 39% 29.72 in 10.0 mi West 13.8 mph - N/A   Clear
8:56 PM 72.0 °F - 51.1 °F 48% 29.72 in 10.0 mi WSW 8.1 mph - N/A   Clear
9:56 PM 70.0 °F - 50.0 °F 49% 29.71 in 10.0 mi SW 6.9 mph - N/A   Clear
10:56 PM 71.1 °F - 46.0 °F 41% 29.70 in 10.0 mi WSW 13.8 mph - N/A   Clear
11:56 PM 66.9 °F - 46.9 °F 49% 29.70 in 10.0 mi WSW 16.1 mph - N/A   Clear